Skip Page Navigation
NASA JPL Caltech
NASA Logo - Jet Propulsion Laboratory + View the NASA Portal
+ Center for Near-Earth Object Studies
JPL Home Earth Solar System Stars & Galaxies Technology
JPL Solar System Dynamics
BODIES ORBITS EPHEMERIDES TOOLS PHYSICAL DATA DISCOVERY FAQ SITE MAP
JPL Small-Body Database Browser
Search: [ help ]  
226733 (2004 PC102)
Classification: Main-belt Asteroid          SPK-ID: 2226733
Ephemeris | Orbit Diagram | Orbital Elements | Mission Design | Physical Parameters | Discovery Circumstances | Close-Approach Data ]

[ show orbit diagram ]
Orbital Elements at Epoch 2459396.5 (2021-Jul-01.0) TDB
Reference: JPL 15 (heliocentric ecliptic J2000)
 Element Value Uncertainty (1-sigma)   Units 
e .3436160641547486 4.1575e-08  
a 2.645034035822484 1.1319e-08 au
q 1.736157850877812 1.107e-07 au
i 12.66833973123596 5.8549e-06 deg
node 31.96459440938714 2.6489e-05 deg
peri 237.8368302887519 2.7892e-05 deg
M 356.709418490473 7.8468e-06 deg
tp 2459410.862018318701
(2021-Jul-15.36201832)
3.4271e-05 TDB
period 1571.250120917278
4.30
1.0085e-05
2.761e-08
d
yr
n .2291169274754525 1.4706e-09 deg/d
Q 3.553910220767157 1.5208e-08 au
  Orbit Determination Parameters
   # obs. used (total)      337  
   data-arc span      7567 days (20.72 yr)  
   first obs. used      2000-10-07  
   last obs. used      2021-06-26  
   planetary ephem.      DE441  
   SB-pert. ephem.      SB441-N16  
   condition code      0  
   norm. resid. RMS      .55908  
   source      ORB  
   producer      Otto Matic  
   solution date      2021-Jul-08 09:41:03  

Additional Information
 Earth MOID = .758714 au 
 Jupiter MOID = 1.7189 au 
 T_jup = 3.274 
[ show covariance matrix ]

Ephemeris | Orbit Diagram | Orbital Elements | Mission Design | Physical Parameters | Discovery Circumstances | Close-Approach Data ]

Physical Parameter Table
Parameter Symbol Value Units Sigma Reference Notes
absolute magnitude H 16.48   n/a MPO614063  

226733 (2004 PC102)          Discovered 2004-Aug-11 by Siding Spring Survey at Siding Spring
Reference: 20091202/Numbers.arcLast Updated: 2009-12-04

[ show close-approach data ]
Ephemeris | Orbit Diagram | Orbital Elements | Mission Design | Physical Parameters | Discovery Circumstances | Close-Approach Data ]
ABOUT SSD CREDITS/AWARDS PRIVACY/COPYRIGHT GLOSSARY LINKS
FirstGov 2021-Jul-31 22:07 UT
(server date/time)  
NASA Home Page
Site Manager:   Ryan S. Park
Webmaster  Alan B. Chamberlin